Corpus Christi Jet Center

SKYE FBO - AIRPORT SERVICES
McCampbell-Porter Airport KTFP
Call Us 24/7: (361) 758-2000
KTFP - McCampbell-Porter Airport
Updated: Wed, 19-Dec-2018 5:55am PST
Fog, Overcast
Fog, Overcast
 Wind from NW
Wind: NW 5 mph , 7 km/h
Temperature: 61°F , 16°C
Dew Point: 61°F , 16°C
Humidity: 100%
Barometer: 29.88 inHg , 1011.9 hPa
Summary: Fog
Clouds: Overcast
Visibility: 1/4 mile , 2 km
Cloud details: Overcast 100 ft
2018/12/19 13:55 KTFP 191355Z AUTO 31004KT 1/4SM FG OVC001 16/16 A2988 RMK AO2 T01610158 PNO

Location

Skye FBO - Airport Services
McCampbell-Porter Airport KTFP
3141 FM 3512
Aransas Pass, TX 78336-9728
(361) 758-2000
2 miles N of Ingleside, TX
Only 15 min from downtown Corpus Christi 2 miles N of Ingleside, Texas and only 15 minutes from downtown Corpus Christi, Texas

(click to enlarge)

Skyview Aviation BBB Business Review

Please Check Out Our Facebook Page For The Latest News

Find SkyeFBO on Facebook